Вернуться в каталог

SL-3 R/B

АктивенPO
NORAD 13403·ROCKET BODY·🇷🇺 Russia

Запущен Aug 5, 1982 с Plesetsk Cosmodrome

Loading…

Ближайшие Пролёты (ближайшие 24 часа)

TLE

СвежийSource: Space-Track

Эпоха: Sep 14, 2026, 14:42 UTC

1 13403U 82079B   26257.61276382  .00003779  00000-0  14290-3 0  9999
2 13403  81.1477 329.6548 0022721 243.5728 116.3175 15.26471344406509

Отслеживайте SL-3 R/B в реальном времени с AllMySat

Download on the App Store